Back to catalog

FENGYUN 1C DEB

AliveSSO
NORAD 30927·DEBRIS·🇨🇳 China

Launched May 10, 1999 from Taiyuan Satellite Launch Center

Loading…

Next Passes (next 24 hours)

TLE

FreshSource: Space-Track

Epoch: Sep 14, 2026, 03:41 UTC

1 30927U 99025AZR 26257.15360385  .00001696  00000-0  94129-3 0  9999
2 30927  99.1684 327.8871 0095207 315.7257  43.6324 14.10337133995640

Track FENGYUN 1C DEB in real time with AllMySat

Download on the App Store